TimeCDT,TemperatureF,Dew PointF,Humidity,Sea Level PressureIn,VisibilityMPH,Wind Direction,Wind SpeedMPH,Gust SpeedMPH,PrecipitationIn,Events,Conditions,WindDirDegrees,DateUTC
12:15 AM,76.6,63.5,64,29.78,10.0,SE,13.8,23.0,N/A,,Clear,130,2013-05-28 05:15:00
12:35 AM,76.5,63.5,64,29.78,10.0,SE,15.0,-,N/A,,Clear,130,2013-05-28 05:35:00
12:55 AM,76.3,63.5,64,29.78,10.0,SE,16.1,24.2,N/A,,Clear,140,2013-05-28 05:55:00
1:15 AM,76.1,63.5,65,29.78,10.0,SE,15.0,-,N/A,,Clear,130,2013-05-28 06:15:00
1:35 AM,75.7,63.5,66,29.77,10.0,SE,11.5,17.3,N/A,,Clear,130,2013-05-28 06:35:00
1:55 AM,75.6,63.3,66,29.77,10.0,SE,15.0,21.9,N/A,,Clear,130,2013-05-28 06:55:00
2:15 AM,75.4,63.0,65,29.76,10.0,SE,10.4,17.3,N/A,,Clear,130,2013-05-28 07:15:00
2:35 AM,75.2,63.1,66,29.75,10.0,SE,9.2,-,N/A,,Clear,140,2013-05-28 07:35:00
2:55 AM,74.7,63.1,67,29.74,10.0,SE,6.9,-,N/A,,Clear,130,2013-05-28 07:55:00
3:15 AM,74.3,63.1,68,29.73,10.0,SE,6.9,-,N/A,,Clear,130,2013-05-28 08:15:00
3:35 AM,73.8,63.3,70,29.73,10.0,East,4.6,-,N/A,,Clear,90,2013-05-28 08:35:00
3:55 AM,72.9,63.1,71,29.72,10.0,ESE,4.6,-,N/A,,Clear,110,2013-05-28 08:55:00
4:15 AM,72.0,63.0,73,29.72,10.0,ESE,3.5,-,N/A,,Clear,120,2013-05-28 09:15:00
4:35 AM,71.6,63.0,74,29.72,10.0,SE,4.6,-,N/A,,Clear,140,2013-05-28 09:35:00
4:55 AM,72.5,63.1,72,29.72,10.0,SSW,4.6,-,N/A,,Clear,200,2013-05-28 09:55:00
5:15 AM,71.1,63.1,76,29.72,10.0,West,3.5,-,N/A,,Clear,270,2013-05-28 10:15:00
5:35 AM,70.2,63.1,78,29.72,10.0,NNW,5.8,-,N/A,,Clear,340,2013-05-28 10:35:00
5:55 AM,70.9,63.1,76,29.72,10.0,NNE,6.9,-,N/A,,Clear,30,2013-05-28 10:55:00
6:55 AM,70.7,62.8,76,29.73,10.0,East,5.8,-,N/A,,Clear,90,2013-05-28 11:55:00
7:15 AM,70.5,62.6,76,29.73,10.0,ESE,6.9,-,N/A,,Clear,110,2013-05-28 12:15:00
7:35 AM,70.7,62.8,76,29.73,10.0,SE,3.5,-,N/A,,Clear,130,2013-05-28 12:35:00
7:55 AM,71.1,63.3,76,29.74,10.0,Calm,Calm,-,N/A,,Clear,0,2013-05-28 12:55:00
8:35 AM,73.0,63.5,72,29.73,10.0,East,5.8,-,N/A,,Clear,90,2013-05-28 13:35:00
8:55 AM,74.5,63.7,69,29.73,10.0,ESE,9.2,-,N/A,,Clear,110,2013-05-28 13:55:00
10:35 AM,81.5,63.3,54,29.75,10.0,East,10.4,-,N/A,,Clear,100,2013-05-28 15:35:00
11:35 AM,84.2,63.5,50,29.74,10.0,ESE,12.7,-,N/A,,Clear,110,2013-05-28 16:35:00
1:15 PM,89.8,55.0,31,29.72,10.0,Calm,Calm,-,N/A,,Clear,0,2013-05-28 18:15:00
1:35 PM,90.7,51.4,26,29.71,10.0,Calm,Calm,-,N/A,,Clear,0,2013-05-28 18:35:00
1:55 PM,91.9,49.6,23,29.70,10.0,North,4.6,-,N/A,,Clear,10,2013-05-28 18:55:00
2:15 PM,93.0,47.1,21,29.70,10.0,Calm,Calm,-,N/A,,Clear,0,2013-05-28 19:15:00
2:55 PM,95.0,45.0,18,29.68,10.0,SSW,9.2,-,N/A,,Clear,210,2013-05-28 19:55:00
3:55 PM,97.2,39.0,13,29.65,10.0,SW,5.8,-,N/A,,Clear,230,2013-05-28 20:55:00
4:35 PM,99.0,34.3,10,29.63,10.0,South,3.5,-,N/A,,Clear,170,2013-05-28 21:35:00
4:55 PM,98.8,37.0,12,29.62,10.0,SE,11.5,-,N/A,,Clear,130,2013-05-28 21:55:00
5:55 PM,94.1,61.0,33,29.60,10.0,ESE,24.2,29.9,N/A,,Clear,110,2013-05-28 22:55:00
7:55 PM,84.4,62.1,47,29.61,10.0,ESE,25.3,33.4,N/A,,Clear,110,2013-05-29 00:55:00
8:15 PM,82.4,62.2,50,29.61,10.0,ESE,25.3,32.2,N/A,,Clear,110,2013-05-29 01:15:00
10:35 PM,78.8,63.0,58,29.63,10.0,ESE,20.7,26.5,N/A,,Clear,120,2013-05-29 03:35:00
10:55 PM,78.1,63.3,60,29.64,10.0,ESE,20.7,26.5,N/A,,Clear,120,2013-05-29 03:55:00
11:15 PM,77.9,63.5,61,29.64,10.0,ESE,23.0,27.6,N/A,,Clear,120,2013-05-29 04:15:00